Weather past 2 weeks in Saint-Pierre, Saint Pierre and Miquelon

Now
30 °F

Partly sunny.


Feels Like: 18 °F
Forecast: 31 / 35 °F
Wind: 20 mph from Northeast

Location: Saint-Pierre

Current Time: Apr 19, 2015 at 8:25:24 AM

Latest Report: Apr 19, 2015 at 8:00 AM


Visibility: N/A

Pressure: 30.01 "Hg

Humidity: 80%

Dew point: 25 °F

Location of Saint-PierreLocation

Historic Weather in Saint-Pierre — Graph

°F

Saint-Pierre temperature yesterday

Maximum temperature yesterday: 43 °F (at 5:00 PM)
Minimum temperature yesterday: 32 °F (at 6:00 AM)
Average temperature yesterday: 36 °F

Past Weeks' High & Low Weather Summary

 TemperatureHumidityPressure
High43 °F (Apr 14, 1:00 PM)100% (Apr 4, 7:00 AM)30.60 "Hg (Apr 4, 7:00 AM)
Low16 °F (Apr 9, 6:00 AM)41% (Apr 16, 4:00 PM)29.27 "Hg (Apr 4, 10:00 PM)
Average33 °F76%30.00 "Hg
* Reported Apr 4 7:00 AM — Apr 19 7:00 AM, Saint-Pierre, Weather by CustomWeather, © 2015

Note: Actual official high and low records may vary slightly from our data, if they occured in-between our weather recording intervals... More about our weather records

Advertising

Saint-Pierre weather history for previous 24 hours

 ConditionsComfort  
Time TempWeatherWind HumidityBarometerVisibility
7:00 AM
Sun, Apr 19
28 °FPartly cloudy.16 mph86%30.01 "HgN/A
6:30 AM30 °FPartly cloudy.17 mph80%29.98 "HgN/A
10:00 PM
Sat, Apr 18
34 °FPassing clouds.15 mph81%29.86 "HgN/A
9:00 PM34 °FPartly sunny.15 mph81%29.83 "HgN/A
8:00 PM36 °FPartly sunny.15 mph81%29.80 "HgN/A
7:00 PM37 °FPartly sunny.16 mph75%29.77 "HgN/A
5:00 PM43 °FPassing clouds.18 mph71%29.71 "HgN/A
4:00 PM41 °FPassing clouds.15 mph81%29.68 "HgN/A
3:00 PM37 °FPartly sunny.18 mph87%29.68 "HgN/A
2:00 PM37 °FPartly sunny.26 mph93%29.65 "HgN/A
1:00 PM39 °FBroken clouds.16 mph100%29.65 "HgN/A
12:00 PM37 °FPartly sunny.17 mph93%29.65 "HgN/A
11:00 AM34 °FLight rain. Partly sunny.13 mph100%29.65 "Hg5 mi
10:00 AM36 °FLight rain. Partly sunny.17 mph93%29.65 "Hg5 mi
9:00 AM36 °FPartly sunny.15 mph93%29.62 "Hg5 mi
8:00 AM34 °FPartly sunny.8 mph100%29.62 "HgN/A
Weather by CustomWeather, © 2015

See weather overviewHow to use our weather pages